Regional Weather Roundup
Issued by NWS

Home | Current Version | Previous Version | Text Only | Print | Product List | Glossary On
Versions: 1 2 3 4 5 6 7 8 9 10 11 12 13 14 15 16 17 18 19 20 21 22 23 24 25 26 27 28 29 30 31 32 33 34 35 36 37 38 39 40 41 42 43 44 45 46 47 48 49 50
000
ASUS44 KOUN 051610
RWROK

WEATHER ROUNDUP FOR OKLAHOMA
NATIONAL WEATHER SERVICE NORMAN OK
1000 AM CST THU MAR 05 2015

NOTE: "FAIR" INDICATES FEW OR NO CLOUDS BELOW 12,000 FEET WITH NO
      SIGNIFICANT WEATHER AND/OR OBSTRUCTIONS TO VISIBILITY.

OKZ001>007-009>012-014-015-017-051700-
NORTHWEST OKLAHOMA AND THE PANHANDLE

CITY           SKY/WX    TMP DP  RH WIND       PRES   REMARKS
GAGE           SUNNY     32  19  58 W13       30.50S WCI  22
ENID/WOODRING  SUNNY     32  21  64 SE6       30.55S WCI  26
$$

OKZ016-021>023-033>039-044-045-051700-
SOUTHWEST OKLAHOMA

CITY           SKY/WX    TMP DP  RH WIND       PRES   REMARKS
LAWTON/REGL    SUNNY     28  15  58 CALM      30.61R
LAWTON/FT SILL SUNNY     32  11  42 NW5       30.58R WCI  28
FREDERICK      SUNNY     26  15  63 NW8       30.59R WCI  18
CLINTON        SUNNY     24  14  65 SW3       30.56R
HOBART         SUNNY     18  11  74 W7        30.59R WCI   9
ALTUS AFB      SUNNY     25  16  69 W3        30.60R
$$

OKZ018>020-024>031-051700-
CENTRAL OKLAHOMA

CITY           SKY/WX    TMP DP  RH WIND       PRES   REMARKS
OKLAHOMA CITY  SUNNY     26  14  60 NW3       30.57R
OKC/WILEY POST SUNNY     25  15  66 CALM      30.58S
OKC/TINKER AFB SUNNY     27  15  60 NW6       30.56R WCI  21
STILLWATER     SUNNY     34  10  37 NW5       30.58S WCI  30
GUTHRIE        SUNNY     27  16  63 W3        30.58S
$$

OKZ008-013-054>072-051700-
NORTHEAST OKLAHOMA

CITY           SKY/WX    TMP DP  RH WIND       PRES   REMARKS
TULSA          SUNNY     33  16  49 NW7       30.59R WCI  27
TULSA/JONES    SUNNY     31  15  52 CALM      30.61R
PONCA CITY     SUNNY     29  17  61 CALM      30.58R
BARTLESVILLE   SUNNY     30  13  49 NE3       30.61R
MUSKOGEE       SUNNY     29  17  61 N6        30.62R WCI  23
$$

OKZ032-040>043-046>053-073>077-051700-
SOUTH CENTRAL/SOUTHEAST OKLAHOMA

CITY           SKY/WX    TMP DP  RH WIND       PRES   REMARKS
ARDMORE/DWNTWN SUNNY     30  14  51 CALM      30.61R
MCALESTER      SUNNY     30  13  49 NE8       30.60R WCI  22
$$



USA.gov is the U.S. government's official web portal to all federal, state and local government web resources and services.